Regional Weather Roundup
Issued by NWS Glasgow, MT

Home | Current Version | Previous Version | Text Only | Print | Product List | Glossary On
Versions: 1 2 3 4 5 6 7 8 9 10 11 12 13 14 15 16 17 18 19 20 21 22 23 24 25 26 27
000
ASUS45 KGGW 221615
RWRGGW
HOURLY REGIONAL WEATHER ROUNDUP FOR NORTHEAST MONTANA
NATIONAL WEATHER SERVICE GLASGOW MONTANA
1000 AM MDT SUN APR 22 2018

NOTE: "FAIR" INDICATES FEW OR NO CLOUDS BELOW 12,000 FEET WITH NO
SIGNIFICANT WEATHER AND/OR OBSTRUCTIONS TO VISISBILITY.

NORTHEAST MONTANA


CITY           SKY/WX    TMP DP  RH WIND       PRES   REMARKS
GLASGOW        SUNNY     53  29  39 VRB7      30.14S
PLENTYWOOD       N/A     53  28  38 NW7G16      N/A
WOLF POINT     MOSUNNY   55  30  38 W8        30.14F
JORDAN           N/A     55  26  32 NW12      30.15F
WINNETT          N/A     55  20  25 SE2         N/A
SIDNEY         SUNNY     56  29  35 CALM      30.15S
GLENDIVE       SUNNY     57  30  35 SE5       30.16S
MALTA            N/A     54  27  35 W7          N/A

FORT PECK REPORTS


CITY           SKY/WX    TMP DP  RH WIND       PRES   REMARKS
FORT PECK        N/A     45  32  60 S3          N/A
THE PINES        N/A     53  26  35 S5          N/A

SOUTHEAST MONTANA


CITY           SKY/WX    TMP DP  RH WIND       PRES   REMARKS
BILLINGS       MOSUNNY   54  22  28 E10       30.15F
MILES CITY     SUNNY     54  27  35 W6        30.17S
BAKER          MOSUNNY   55  30  38 NW10      30.16S
LIVINGSTON     SUNNY     48  29  47 VRB6      30.14F

CENTRAL MONTANA


CITY           SKY/WX    TMP DP  RH WIND       PRES   REMARKS
HAVRE          MOSUNNY   52  26  36 SW12      30.15S
LEWISTOWN      CLOUDY    50  23  34 SW16      30.15S
GREAT FALLS    MOSUNNY   48  23  37 NW10      30.16F
CUT BANK       PTSUNNY   47  17  30 W17       30.14S
HELENA         SUNNY     50  22  33 W9        30.17F
BUTTE          SUNNY     41  23  48 N3        30.18F
BOZEMAN        SUNNY     45  28  51 CALM      30.16F

WESTERN MONTANA


CITY           SKY/WX    TMP DP  RH WIND       PRES   REMARKS
MISSOULA       MOSUNNY   41  27  57 CALM      30.23S
KALISPELL      NOT AVBL

NORTH DAKOTA


CITY           SKY/WX    TMP DP  RH WIND       PRES   REMARKS
WILLISTON      SUNNY     57  31  37 W7        30.14R
DICKINSON      SUNNY     58  28  32 NE8       30.12R
MINOT          SUNNY     58  34  40 NW12      30.11R
BISMARCK       SUNNY     55  38  52 S14       30.16F

SOUTHERN SASKATCHEWAN


CITY           SKY/WX    TMP DP  RH WIND       PRES   REMARKS
REGINA         MOSUNNY   50  34  53 W20G26    30.05S
ESTEVAN        MOSUNNY   55  32  41 W15       30.09S
SWIFT CURRENT  SUNNY     46  25  42 W15       30.09R





USA.gov is the U.S. government's official web portal to all federal, state and local government web resources and services.